Tracking 22454 objects as of 5-Mar-2021
HD Live streaming from Space Station
objects crossing your sky now

FREGAT DEB

Track FREGAT DEB now!
10-day predictions


NORAD ID: 47338
Int'l Code: 2011-037NV
Perigee: 564.1 km
Apogee: 1,957.7 km
Inclination: 51.3 °
Period: 110.6 minutes
Semi major axis: 7631 km
RCS: Unknown
Launch date: July 18, 2011
Source: Commonwealth of Independent States (former USSR) (CIS)
Launch site: TYURATAM MISSILE AND SPACE COMPLEX (TTMTR)

Note: This is SATELLITE DEBRIS
aabbcc
Your satellite tracking list
Your tracking list is empty




NASA's NSSDC Master Catalog

Two Line Element Set (TLE):
1 47338U 11037NV  21063.67314453  .00193774  00000-0  76527-1 0  9991
2 47338  51.3128 317.3109 0913033   9.1190 352.5085 13.02122449  6732
Source of the keplerian elements: AFSPC